Tracking 19909 objects as of 21-Oct-2019
HD Live streaming from Space Station
objects crossing your sky now

NOAA 16 DEB

Track NOAA 16 DEB now!
10-day predictions


NORAD ID: 41655
Int'l Code: 2000-055NU
Perigee: 826.1 km
Apogee: 855.5 km
Inclination: 98.8 °
Period: 101.6 minutes
Semi major axis: 7211 km
RCS: Unknown
Launch date: September 21, 2000
Source: United States (US)
Launch site: AIR FORCE WESTERN TEST RANGE (AFWTR)

Note: This is SATELLITE DEBRIS
aabbcc
Your satellite tracking list
Your tracking list is empty




NASA's NSSDC Master Catalog

Two Line Element Set (TLE):
1 41655U 00055NU  19292.07005582  .00000591  00000-0  31226-3 0  9993
2 41655  98.8072  10.3174 0020373 342.5039  17.5432 14.17555427181119
Source of the keplerian elements: AFSPC